User: anonymous   Login
Location: Theydon Bois
(51.6750°N, 0.1050°E)
Time: 08:05:10
(UTC+01:00)
Language:

Cosmos 1626 - Orbit

View from above orbital plane
View from above orbital plane
View from above satellite
View from above satellite

Ground track
Ground track

The orbit data is extracted from the following two-line orbital elements,

1 15494U 85009A   18175.22954511  .00000937  00000-0  38232-4 0  9997
2 15494  82.4798 237.2420 0002713 151.8563 208.2820 15.23180360825393
Epoch (UTC): 24 June 2018 05:30:32
Eccentricity: 0.0002713
inclination: 82.4798°
perigee height: 494 km
apogee height: 498 km
right ascension of ascending node: 237.2420°
argument of perigee: 151.8563°
revolutions per day: 15.23180360
mean anomaly at epoch: 208.2820°
orbit number at epoch: 82539

The dashed part of the orbit path shows where the satellite is in the earth's shadow,  

DLR